星链-1746 (STARLINK-1746 )

导读 | 豆包AI

STARLINK-1746是美国太空探索技术公司星链星座中的卫星,于2020年10月6日发射升空,属于星链互联网卫星星座组网批次。它依托猎鹰9号火箭送入预定轨道,旨在为全球提供低时延、高速率的卫星互联网服务,推进星链全球覆盖的组网进程,是美国低轨巨型星座建设的组成单元。

基本信息
目录编号:
46588
目录名称:
STARLINK-1746
国际标识:
2020-070BJ
轨道中心:
EARTH
卫星名称:
星链-1746
卫星全名:
星链-1746 (STARLINK-1746 )
卫星状态:
在轨 (已飞行1985 天)
发射日期:
2020-10-06 UTC
国别 :
美国 (US)
星等 :
--
轨道信息
数据来源 国际轨道数据
星历时间: 2026-03-14T08:00:02+0800
8小时前
查看轨道信息
半长轴: 6726.449km
偏心率: 0.0002246
轨道倾角: 53.044°
近地点辐角 104.564°
升交点赤经 93.589°
平近点角 224.356°
近地点: 346.801km
远地点: 349.823km
周期: 91.504分钟
每日圈数: 15.737074
详细信息
固有亮度:
5
最大亮度:
2.5
卫星平台:
Starlink V1.0
覆盖范围:
全球
运营商:
太空探索技术公司
运营商所在国:
美国
制造商(研发单位):
太空探索技术公司
制造商所在国:
美国
使用方式:
暂无
卫星简介
星链(Starlink)计划是由太空探索技术公司(SpaceX)提出的一个巨型低轨卫星互联网星座项目,计划在2019年至2024年间在太空搭建由约1.2万颗卫星组成的“星链”网络,其中1584颗将部署在地球上空550千米处的近地轨道,并从2020年开始工作。该卫星仍在工作。
2D轨道图
3D轨道图
轨道高度分析图
轨道倾角分析图
轨道综合分析图
查看轨道综合分析图